Location: Kelian
(2.6252°N, 114.1262°E)
Time: 03:50:53
(UTC+00:00)

Daily predictions for brighter satellites

Satellite Brightness Start Highest point End
(mag) Time Altitude Azimuth Time Altitude Azimuth Time Altitude Azimuth
SL-16 R/B 2.2 10:22:20 10° SSW 10:28:00 83° ESE 10:33:39 10° NNE
Cosmos 1939 Rocket 3.5 10:25:49 10° S 10:29:37 58° W 10:33:24 10° NNW
Cosmos 2227 Rocket 2.4 10:25:01 10° N 10:30:26 49° ENE 10:35:51 10° SSE
Cosmos 44 3.9 10:26:39 10° S 10:31:35 45° ESE 10:36:42 10° NE
MOS 1-B 4.4 10:27:34 10° SSE 10:33:16 58° ENE 10:38:55 10° N
IRAS Rocket 4.3 10:28:51 10° NNE 10:34:21 88° ESE 10:39:51 10° SSW
MOS 1-B Rocket 4.3 10:30:05 10° N 10:35:52 68° WNW 10:41:25 10° SSW
NOSS 3-1 (A) 2.9 10:31:44 10° SSW 10:36:46 88° WNW 10:41:47 10° NNE
Ariane H10-3 2.1 10:28:39 10° W 10:38:12 78° N 10:41:19 11° E
Cosmos 1048 Rocket 4.3 10:36:07 10° N 10:41:07 45° ENE 10:46:03 10° SSE
Hubble Space Telescope 2.9 10:40:34 10° S 10:42:47 14° SSE 10:44:59 10° ESE
YAOGAN 1 4.3 10:41:53 10° ESE 10:43:37 12° ENE 10:45:22 10° NE
Cosmos 2322 Rocket 2.2 10:38:29 10° SSW 10:44:06 85° ESE 10:49:42 10° NNE
Cosmos 2333 Rocket 3.7 10:42:16 10° SE 10:45:40 16° ESE 10:48:06 13° ENE
Cosmos 1455 Rocket 4.3 10:41:57 10° SSW 10:46:07 46° W 10:50:19 10° NNW
FALCON 9 DEB 2.6 10:45:14 10° SSW 10:48:08 66° SE 10:50:46 12° NE
Okean O Rocket 1.9 10:44:12 10° SSE 10:48:18 42° ENE 10:52:23 10° N
Cosmos 304 Rocket 3.7 10:46:30 10° S 10:51:16 83° ESE 10:56:02 10° NNE
USA 267 4.3 10:47:09 10° ESE 10:52:12 24° NE 10:57:12 10° N
Timation 2 Rocket 4.2 10:46:41 10° N 10:53:06 52° ENE 10:59:16 10° SSE
Iridium 4 Rocket 3.9 10:50:20 10° NNE 10:55:05 42° E 11:00:14 10° SSE
Cosmos 332 Rocket 3.9 10:52:05 10° SSW 10:56:59 82° W 11:01:53 10° N
Cosmos 2360 Rocket 2.2 10:52:01 10° S 10:57:32 59° ESE 11:03:02 10° NNE
Cosmos 2082 4.1 10:52:29 10° N 10:57:36 37° ENE 11:02:44 10° SE
Cosmos 2219 Rocket 3.6 10:54:33 10° SE 10:57:59 17° ESE 10:58:39 16° E
Intelsat 5-1 Rocket 3.6 10:56:29 10° WSW 10:58:18 17° SSW 11:00:49 10° SSE
Meteor 2-10 Rocket 3.9 10:52:49 10° S 10:58:29 54° E 11:04:02 10° NNE
Cosmos 1544 Rocket 4.1 10:55:21 10° SSW 10:59:44 64° W 11:04:07 10° N
CZ-4B R/B 3.2 10:54:38 10° SSE 11:00:11 80° ENE 11:05:48 10° N
Cosmos 494 Rocket 3.9 11:00:30 10° N 11:05:36 68° ENE 11:10:40 10° SSE
FALCON 9 DEB 3.0 11:02:16 10° SSW 11:05:41 79° SE 11:07:38 23° NE
ATLAS 2A CENTAUR R/B 3.6 11:02:38 10° NW 11:06:13 16° N 11:07:23 14° NNE
H-2A R/B 3.2 11:03:06 10° SE 11:07:11 35° ENE 11:11:13 10° NNE
Intelsat 5-3 Rocket 3.7 11:09:33 10° N 11:09:46 11° N 11:09:46 11° N
Cosmos 220 Rocket 4.1 11:06:59 10° SSW 11:11:24 83° WNW 11:15:48 10° N
Cosmos 1455 4.3 11:08:41 10° SE 11:09:18 13° SE 11:09:18 13° SE
H-2A R/B 2.9 11:09:54 10° N 11:13:58 51° WNW 11:18:08 10° SSW
Cosmos 2322 4.5 11:09:27 10° SSE 11:14:21 29° ESE 11:15:33 27° E
Cosmos 1605 Rocket 4.0 11:10:42 10° S 11:16:50 86° W 11:23:03 10° N
Centaur AC-125 3.8 11:01:01 10° WNW 11:19:20 57° NNE 11:21:32 32° E
Meteor 1-4 Rocket 3.2 11:17:35 10° SSW 11:21:08 54° W 11:24:37 10° N
FALCON 9 DEB 3.6 11:18:30 10° SW 11:21:22 47° NW 11:22:10 35° N
ARGOS 3.0 11:16:49 10° SSE 11:22:12 83° ENE 11:27:34 10° N
ARIANE 5 R/B 3.9 02:26:31 10° W 11:24:28 66° S 11:26:49 30° ESE
SJ-11-01 4.4 11:21:24 10° S 11:26:03 75° WSW 11:30:42 10° NNW
Cosmos 1703 4.0 11:23:49 10° NNW 11:27:36 52° W 11:31:22 10° S
Cosmos 1153 Rocket 4.4 11:22:59 10° S 11:29:14 69° E 11:35:32 10° N
NOSS 2-2 (D) 3.3 11:25:19 10° SSW 11:30:18 84° ESE 11:31:21 49° NNE
Okean 1-7 Rocket 3.5 11:26:27 10° N 11:30:49 60° E 11:35:15 10° SSE
Ariane H10 4.5 11:15:49 10° W 11:30:55 81° S 11:32:42 41° ESE
FALCON 9 DEB 4.0 11:28:20 10° SW 11:31:05 36° NW 11:31:23 35° NW
CZ-4 R/B 3.2 11:28:01 10° SSE 11:36:41 - N 11:28:57 17° SSE
deb Ariane 4.0 11:25:50 10° W 11:33:37 48° N 11:34:14 44° NNE
CZ-4B R/B 2.4 11:31:54 16° N 11:34:22 46° WNW 11:37:37 10° SSW
Spot 2 3.8 11:30:50 10° SSE 11:34:54 89° W 11:38:55 10° NNW
Lacrosse 5 3.9 11:35:49 10° SSE 11:36:54 14° SSE 11:36:54 14° SSE
NOAA 15 4.4 11:34:54 10° SSE 11:40:08 72° ENE 11:45:23 10° N
NOSS 2-2 (E) 4.4 11:36:20 10° SW 11:40:50 44° WNW 11:42:24 28° NNW
Feng Yun 1-1 Rocket 4.1 11:35:27 10° SSE 11:40:51 87° WSW 11:46:20 10° NNW
Ariane H10+ 4.5 07:00:33 10° W 11:41:11 60° S 11:45:37 31° ESE
H-2A R/B 4.1 11:38:26 10° SSW 11:42:45 27° WSW 11:47:11 10° NW
Cosmos 405 Rocket 4.2 11:44:48 10° NNW 11:48:34 39° W 11:52:21 10° SSW
COSMOS 2428 3.4 11:44:35 10° S 11:48:25 37° SSE 11:48:25 37° SSE
BLOCK DM-SL R/B 2.9 11:43:49 10° W 11:50:10 66° S 11:50:25 64° SSE
Cosmos 1328 4.5 11:46:51 10° NNW 11:50:46 53° W 11:54:42 10° S
